Regional Weather Roundup
Issued by NWS

Home | Current Version | Previous Version | Graphics & Text | Print | Product List | Glossary Off
Versions: 1 2 3 4 5 6 7 8 9 10 11 12 13 14 15 16 17 18 19 20 21 22 23 24 25 26 27 28 29 30 31 32 33 34 35 36 37 38 39 40 41 42 43 44 45 46 47 48 49 50

995
ASUS43 KTOP 241559
RWRKS

WEATHER ROUNDUP FOR KANSAS
NATIONAL WEATHER SERVICE GOODLAND KS
1100 AM CDT SUN SEP 24 2017

NOTE:  "FAIR" INDICATES FEW OR NO CLOUDS BELOW 12,000 FEET WITH NO
SIGNIFICANT WEATHER AND/OR OBSTRUCTIONS TO VISIBILITY.

KSZ001>006-013>018-027>032-041>047-241700-
NORTHWEST KANSAS

CITY           SKY/WX    TMP DP  RH WIND       PRES   REMARKS
GOODLAND       CLOUDY    50  49  96 N10       29.98S
HAYS           CLOUDY    68  61  78 SW8       29.94R
HILL CITY      LGT RAIN  64  63  96 CALM      29.93S FOG
RUSSELL        CLOUDY    76  61  59 SW12      29.92R
$$

KSZ061>065-074>080-084>089-241700-
SOUTHWEST KANSAS

CITY           SKY/WX    TMP DP  RH WIND       PRES   REMARKS
DODGE CITY     RAIN      63  62  97 SE8       29.96R
ELKHART          N/A     62  64 100 SE15        N/A
GARDEN CITY    CLOUDY    62  59  90 SE10      29.94R
GREAT BEND     CLOUDY    76  63  64 SW12      29.94S
LIBERAL        CLOUDY    63  62  97 SE7       29.94S
$$

KSZ066>073-081>083-090>101-241700-
SOUTHEAST KANSAS

CITY           SKY/WX    TMP DP  RH WIND       PRES   REMARKS
CHANUTE        SUNNY     83  69  62 S12       29.99S
COFFEYVILLE    SUNNY     83  69  62 S8        29.97S
HUTCHINSON     PTSUNNY   82  65  56 S21G26    29.94S
MEDICINE LODGE   N/A     79  64  60 S14G25    29.92S
NEWTON         PTSUNNY   80  66  62 S18G25    29.96S
PARSONS        SUNNY     84  69  60 S9        29.99S
WICHITA INTL   PTSUNNY   83  67  58 S18G26    29.94F
WICHITA JABRA  MOSUNNY   81  68  64 S14G24    29.95F
WINFIELD       MOSUNNY   82  68  62 S12       29.97S
$$

KSZ007>012-019>026-033>040-048>060-102>105-241700-
NORTHEAST KANSAS

CITY           SKY/WX    TMP DP  RH WIND       PRES   REMARKS
CONCORDIA      CLOUDY    79  67  66 S13       29.93R
EMPORIA        MOSUNNY   81  67  62 S14       29.97R
LAWRENCE       SUNNY     83  69  62 S12       29.97S
MANHATTAN      SUNNY     84  66  54 S13G22    29.94R
OLATHE IND     SUNNY     82  68  62 S10       29.99S
OLATHE EXE     SUNNY     80  70  71 S9        29.99S
SALINA         CLOUDY    85  64  49 S17G28    29.93S
TOPEKA BILLARD SUNNY     83  69  62 S13       29.96R
TOPEKA FORBES  SUNNY     84  69  60 S14       29.97S
$$




USA.gov is the U.S. government's official web portal to all federal, state and local government web resources and services.